[TLELIST]

  • This mailing list is a public mailing list - anyone may join or leave, at any time.
  • This mailing list is announce-only.

International Space Station (ISS) / Hubble Space Telescope (HST) / Chandra X-Ray Observatory Orbital Data via EMAIL

Privacy Policy:

Private list

Archived Messages

 

[TLELIST] Current TLEs

June 13th 2026 PDT

0 HST 1 20580U 90037B 26164.23141094 .00006133 00000-0 19317-3 0 9994 2 20580 28.4712 107.6084 0001932 101.0971 258.9842 15.30704754787962 0 ISS (ZARYA) 1 25544U 98067A 26164.12566316 .00008200 00000-0 15573-3 0 9993 2 25544 51.6335 320.1950 0004891 179.6545 180.4447 15.49201403571127 0 CXO 1 25867U 99040B 26166.73124906 .00000579 00000-0 00000-0 0 9994 2 25867 56.1776 116.6293 7842889 310.3072 0.0447 0.37804362 17312 ...Continue Reading

[TLELIST] Current TLEs

June 12th 2026 PDT

0 HST 1 20580U 90037B 26163.25344175 .00006001 00000-0 18892-3 0 9991 2 20580 28.4709 114.2921 0001952 91.9422 268.1398 15.30693075787818 0 ISS (ZARYA) 1 25544U 98067A 26162.96453450 .00008067 00000-0 15344-3 0 9994 2 25544 51.6334 325.9414 0004932 175.6343 184.4689 15.49182446570948 0 CXO 1 25867U 99040B 26164.08641897 .00000611 00000-0 00000+0 0 9999 2 25867 56.1211 116.7320 7849026 310.2825 0.0985 0.37806491 17304 ...Continue Reading

[TLELIST] Current TLEs

June 11th 2026 PDT

0 HST 1 20580U 90037B 26162.21026604 .00005021 00000-0 15696-3 0 9990 2 20580 28.4707 121.4212 0001970 81.6673 278.4146 15.30680019787654 0 ISS (ZARYA) 1 25544U 98067A 26162.12593356 .00002535 00000-0 53892-4 0 9997 2 25544 51.6353 330.0904 0005092 172.2857 187.8210 15.49161426570819 0 CXO 1 25867U 99040B 26164.08641897 .00000611 00000-0 00000+0 0 9999 2 25867 56.1211 116.7320 7849026 310.2825 0.0985 0.37806491 17304 ...Continue Reading

[TLELIST] Current TLEs

June 10th 2026 PDT

0 HST 1 20580U 90037B 26161.23228164 .00005211 00000-0 16320-3 0 9992 2 20580 28.4709 128.1050 0001977 72.5591 287.5221 15.30670250787500 0 ISS (ZARYA) 1 25544U 98067A 26161.15832933 .00007673 00000-0 14376-3 0 9997 2 25544 51.6328 334.8807 0006746 152.8443 207.2900 15.49693861570666 0 CXO 1 25867U 99040B 26164.08641897 .00000611 00000-0 00000-0 0 9990 2 25867 56.1211 116.7320 7849026 310.2825 0.0985 0.37806491 17304 ...Continue Reading

[TLELIST] Current TLEs

June 9th 2026 PDT

0 HST 1 20580U 90037B 26160.25429042 .00004810 00000-0 15014-3 0 9994 2 20580 28.4711 134.7882 0001992 63.4353 296.6447 15.30659901787355 0 ISS (ZARYA) 1 25544U 98067A 26160.19103139 .00006847 00000-0 12924-3 0 9998 2 25544 51.6332 339.6717 0006890 149.5560 210.5830 15.49678250570515 0 CXO 1 25867U 99040B 26161.44248451 .00000667 00000-0 00000-0 0 9997 2 25867 56.0540 116.8503 7852548 310.2578 0.2529 0.37805334 17299 ...Continue Reading

[TLELIST] Current TLEs

June 8th 2026 PDT

0 HST 1 20580U 90037B 26158.29828937 .00006010 00000-0 18954-3 0 9991 2 20580 28.4712 148.1547 0001938 44.7656 315.3096 15.30642118787059 0 ISS (ZARYA) 1 25544U 98067A 26158.90128688 .00007994 00000-0 14961-3 0 9997 2 25544 51.6338 346.0598 0006926 145.2709 214.8733 15.49660544570312 0 CXO 1 25867U 99040B 26161.44248451 .00000667 00000-0 00000-0 0 9997 2 25867 56.0540 116.8503 7852548 310.2578 0.2529 0.37805334 17299 ...Continue Reading

[TLELIST] Current TLEs

June 7th 2026 PDT

0 HST 1 20580U 90037B 26158.29828938 .00006010 00000-0 18954-3 0 9992 2 20580 28.4712 148.1547 0001938 44.7656 315.3096 15.30642118787059 0 ISS (ZARYA) 1 25544U 98067A 26157.86947977 .00009276 00000-0 17237-3 0 9995 2 25544 51.6338 351.1688 0006978 142.0049 218.1433 15.49642340570158 0 CXO 1 25867U 99040B 26158.79821798 .00000708 00000-0 00000-0 0 9998 2 25867 55.9928 116.9568 7854200 310.2595 0.2905 0.37800379 17286 ...Continue Reading

[TLELIST] Current TLEs

June 6th 2026 PDT

0 HST 1 20580U 90037B 26156.34226219 .00005266 00000-0 16530-3 0 9990 2 20580 28.4714 161.5212 0001846 24.4267 335.6416 15.30618516786752 0 ISS (ZARYA) 1 25544U 98067A 26157.22459382 .00054840 00000-0 97346-3 0 9999 2 25544 51.6331 354.3683 0007056 137.0383 223.1158 15.49647679570604 0 CXO 1 25867U 99040B 26158.79821798 .00000708 00000-0 00000-0 0 9998 2 25867 55.9928 116.9568 7854200 310.2595 0.2905 0.37800379 17286 ...Continue Reading

[TLELIST] Current TLEs

June 5th 2026 PDT

0 HST 1 20580U 90037B 26153.34296606 .00005773 00000-0 18209-3 0 9992 2 20580 28.4711 182.0162 0001701 354.7953 5.2625 15.30586461786296 0 ISS (ZARYA) 1 25544U 98067A 26156.06378630 .00007786 00000-0 14618-3 0 9994 2 25544 51.6329 0.1115 0007003 133.6992 226.4578 15.49608794569871 0 CXO 1 25867U 99040B 26158.79821798 .00000708 00000-0 00000-0 0 9998 2 25867 55.9928 116.9568 7854200 310.2595 0.2905 0.37800379 17286 ...Continue Reading

[TLELIST] Current TLEs

June 4th 2026 PDT

0 HST 1 20580U 90037B 26153.34296606 .00005773 00000-0 18209-3 0 9992 2 20580 28.4711 182.0162 0001701 354.7953 5.2625 15.30586461786296 0 ISS (ZARYA) 1 25544U 98067A 26154.96745432 .00008451 00000-0 15807-3 0 9990 2 25544 51.6330 5.5404 0007082 130.0270 230.1341 15.49590346569705 0 CXO 1 25867U 99040B 26156.15341265 .00000679 00000-0 00000-0 0 9999 2 25867 55.9514 117.0331 7855938 310.2940 0.1967 0.37796078 17276 ...Continue Reading